Regional Weather Roundup
Issued by NWS

Home | Current Version | Previous Version | Text Only | Print | Product List | Glossary Off
Versions: 1 2 3 4 5 6 7 8 9 10 11 12 13 14 15 16 17 18 19 20 21 22 23 24 25 26 27 28 29 30 31 32 33 34 35 36 37 38 39 40 41 42 43 44 45 46 47 48 49 50

000
ASUS43 KDMX 270006
RWRIA

WEATHER ROUNDUP FOR IOWA
NATIONAL WEATHER SERVICE DES MOINES IA
600 PM CST SUN FEB 26 2017

NOTE: "FAIR" INDICATES FEW OR NO CLOUDS BELOW 12,000 FEET WITH NO
SIGNIFICANT WEATHER AND/OR OBSTRUCTIONS TO VISIBILITY.

* - THESE STATIONS ARE NOT NWS STATIONS...THUS NOT UNDER NWS
QUALITY CONTROL.  THEY ALSO DO NOT REPORT WEATHER SUCH
AS PRECIPITATION OR FOG.

IAZ001>003-012>014-020>022-031>034-043>046-270100-
   NORTHWEST IOWA

CITY           SKY/WX    TMP DP  RH WIND       PRES   REMARKS
CARROLL *      CLEAR     32  28  86 SW9       29.95R WCI  24
CHEROKEE *     CLEAR     30  23  76 S5        29.94R WCI  25
DENISON *      CLEAR     34  25  69 S5        29.93R WCI  30
LE MARS *      CLEAR     32  25  74 S8        29.93S WCI  25
SHELDON *      CLEAR     32  32 100 SW6       29.89R WCI  26
SIOUX CITY     CLEAR     35  24  64 S5        29.95R WCI  31
6HR MIN TEMP:  31; 6HR MAX TEMP:  38;

SPENCER        CLEAR     30  25  81 SW10      29.92R WCI  21
6HR MIN TEMP:  30; 6HR MAX TEMP:  33;

STORM LAKE *   CLEAR     27  23  86 SW7       29.93R WCI  19
$$

IAZ055>058-069>071-079>083-090>094-270100-
   SOUTHWEST IOWA

CITY           SKY/WX    TMP DP  RH WIND       PRES   REMARKS
ATLANTIC *     CLEAR     37  28  70 N5        29.96R WCI  34
AUDUBON *      CLEAR     34  27  75 CALM      29.96S
CLARINDA *     CLEAR     43  23  45 N8        29.97R
COUNCIL BLFS * CLEAR     39  23  52 N3        29.95R
CRESTON *      CLEAR     39  21  48 N7        29.96R WCI  34
HARLAN  *      CLEAR     34  28  80 CALM      29.99R
LAMONI         CLOUDY    44  22  41 NW7       29.94R
6HR MIN TEMP:  44; 6HR MAX TEMP:  51;

RED OAK *      CLEAR     39  28  65 N6        29.96R WCI  35
SHENANDOAH *   CLEAR     43  21  42 N6        29.96R
$$

IAZ047>049-059>061-072>074-084-270100-
   CENTRAL IOWA

CITY           SKY/WX    TMP DP  RH WIND       PRES   REMARKS
AMES           CLEAR     35  29  78 W7        29.96R WCI  29
6HR MIN TEMP:  35; 6HR MAX TEMP:  39;

ANKENY *       CLEAR     37  19  48 MISG      29.98R
BOONE *        CLEAR     34  25  69 W6        29.95S WCI  29
CHARITON *     CLEAR     43  21  42 NW10      29.95R
DES MOINES     PTCLDY    41  20  43 N7        29.97R
6HR MIN TEMP:  41; 6HR MAX TEMP:  48;

GRINNELL*      CLEAR     36  23  58 NW8       29.97R WCI  30
KNOXVILLE *    CLEAR     41  19  42 NW8       29.94R
MARSHALLTOWN   CLEAR     32  27  81 NW9       29.96R WCI  24
6HR MIN TEMP:  32; 6HR MAX TEMP:  42;

NEWTON *       CLEAR     37  21  52 NW7       29.96R WCI  32
PELLA *        CLEAR     40  23  51 NW8       29.97R WCI  34
PERRY *          N/A     35  28  76 W6        29.97R WCI  29
$$

IAZ004>006-015-016-023>025-035-036-270100-
   NORTH CENTRAL IOWA

CITY           SKY/WX    TMP DP  RH WIND       PRES   REMARKS
ALGONA *       CLEAR     27  23  86 SW7       29.93R WCI  19
CLARION *      CLEAR     25  23  93 SW6       29.95R WCI  18
ESTHERVILLE    CLEAR     30  25  81 SW12      29.90R WCI  20
6HR MIN TEMP:  30; 6HR MAX TEMP:  33;

FORT DODGE *   CLEAR     28  19  69 SW6       29.96R WCI  22
MASON CITY     CLEAR     27  20  75 SW9       29.95R WCI  18
6HR MIN TEMP:  27; 6HR MAX TEMP:  30;

FOREST CITY *    N/A     27  19  74 SW6       29.93R WCI  20
WEBSTER CITY * CLEAR     28  23  80 SW8       29.93S WCI  20
IOWA FALLS *     N/A     32  27  80 W6        29.96R WCI  26
$$

IAZ007>011-017>019-026>030-037>042-050>054-066-270100-
   NORTHEAST IOWA

CITY           SKY/WX    TMP DP  RH WIND       PRES   REMARKS
CEDAR RAPIDS   CLEAR     36  24  62 NW12      29.94R WCI  28
6HR MIN TEMP:  36; 6HR MAX TEMP:  48;

CHARLES CITY * CLEAR     28  25  86 SW7       29.95R WCI  21
CLINTON *      MOCLDY    40  29  64 SW10      29.95R WCI  33
DECORAH *      CLEAR     30  25  80 W5        29.92R WCI  25
DUBUQUE        CLEAR     37  27  67 W12       29.93R WCI  29
6HR MIN TEMP:  37; 6HR MAX TEMP:  43;

MONTICELLO *   CLEAR     37  25  60 W8        29.94R WCI  31
OELWEIN *      CLEAR     32  28  86 NW7       29.95R WCI  26
WATERLOO       CLEAR     32  24  72 W6        29.96R WCI  26
6HR MIN TEMP:  32; 6HR MAX TEMP:  40;

$$

IAZ064-065-067-068-078-270100-
   EAST CENTRAL IOWA

CITY           SKY/WX    TMP DP  RH WIND       PRES   REMARKS
DAVENPORT      CLEAR     41  28  60 SW9       29.95R
6HR MIN TEMP:  41; 6HR MAX TEMP:  50; 6HR PCP: TRACE;

IOWA CITY      CLEAR     44  24  45 NW10      29.97R
6HR MIN TEMP:  44; 6HR MAX TEMP:  52;

MUSCATINE *    CLOUDY    45  28  53 SW9       29.96R
QUAD CITIES    CLOUDY    46  27  47 SW12      29.96R
6HR MIN TEMP:  45; 6HR MAX TEMP:  52; 6HR PCP: TRACE;

$$

IAZ062-063-075>077-085>089-095>099-270100-
   SOUTHEAST IOWA

CITY           SKY/WX    TMP DP  RH WIND       PRES   REMARKS
BURLINGTON     CLEAR     44  31  60 SW13      29.96R
6HR MIN TEMP:  44; 6HR MAX TEMP:  53;

FAIRFIELD *    CLOUDY    45  28  53 SW9       29.96R
KEOKUK *       CLEAR     45  27  49 SW10      29.97S
CENTERVILLE *    N/A     43  30  61 CALM      29.97R
OTTUMWA        CLOUDY    45  24  43 NW10      29.95R
6HR MIN TEMP:  45; 6HR MAX TEMP:  51; 6HR PCP: TRACE;

WASHINGTON *   CLOUDY    43  30  61 SW9       29.97R
$$

ABBREVIATIONS USED IN REMARKS
   TC - TEMPERATURES IN CELSIUS
  WCI - WIND CHILL INDEX
   HX - HEAT INDEX
  VSB - VISIBILITY
$$





USA.gov is the U.S. government's official web portal to all federal, state and local government web resources and services.